User: anonymous   Login
Location: Oshawa
(43.9000°N, 78.8670°W)
Time: 21:27:15
(UTC-04:00)
Language:

Thor Agena Rocket - Orbit

View from above orbital plane
View from above orbital plane
View from above satellite
View from above satellite

Ground track
Ground track

The orbit data is extracted from the following two-line orbital elements,

1 00733U 64002A   15110.42016564  .00000407  00000-0  16836-3 0  9999
2 00733 099.0414 247.0463 0033123 311.5167 048.3174 14.32072687669406
Epoch (UTC): 20 April 2015 10:05:02
Eccentricity: 0.0033123
inclination: 99.0414°
perigee height: 761 km
apogee height: 808 km
right ascension of ascending node: 247.0463°
argument of perigee: 311.5167°
revolutions per day: 14.32072687
mean anomaly at epoch: 48.3174°
orbit number at epoch: 66940

The dashed part of the orbit path shows where the satellite is in the earth's shadow,  

DLR